TimeEDT,TemperatureF,Dew PointF,Humidity,Sea Level PressureIn,VisibilityMPH,Wind Direction,Wind SpeedMPH,Gust SpeedMPH,PrecipitationIn,Events,Conditions,WindDirDegrees,DateUTC
12:54 AM,77.0,66.0,69,30.12,10.0,Calm,Calm,-,N/A,,Clear,0,2012-09-01 04:54:00
1:54 AM,78.1,66.0,66,30.12,10.0,Calm,Calm,-,N/A,,Clear,0,2012-09-01 05:54:00
2:54 AM,77.0,66.0,69,30.11,10.0,Calm,Calm,-,N/A,,Clear,0,2012-09-01 06:54:00
3:54 AM,77.0,66.0,69,30.11,10.0,NNW,3.5,-,N/A,,Clear,340,2012-09-01 07:54:00
4:54 AM,77.0,66.0,69,30.12,10.0,WNW,4.6,-,N/A,,Scattered Clouds,290,2012-09-01 08:54:00
5:54 AM,77.0,66.9,71,30.12,10.0,NW,4.6,-,N/A,,Scattered Clouds,320,2012-09-01 09:54:00
6:54 AM,77.0,66.9,71,30.13,10.0,West,6.9,-,N/A,,Scattered Clouds,280,2012-09-01 10:54:00
7:54 AM,78.1,66.9,68,30.15,10.0,WNW,6.9,-,N/A,,Scattered Clouds,290,2012-09-01 11:54:00
8:54 AM,78.1,68.0,71,30.16,10.0,WNW,4.6,-,N/A,,Scattered Clouds,290,2012-09-01 12:54:00
9:54 AM,79.0,69.1,72,30.17,10.0,WNW,5.8,-,N/A,,Mostly Cloudy,290,2012-09-01 13:54:00
10:54 AM,80.1,70.0,71,30.17,10.0,West,4.6,-,N/A,,Mostly Cloudy,280,2012-09-01 14:54:00
11:54 AM,82.0,70.0,67,30.17,10.0,WSW,3.5,-,0.00,,Mostly Cloudy,240,2012-09-01 15:54:00
12:54 PM,82.0,69.1,65,30.17,10.0,Calm,Calm,-,N/A,,Mostly Cloudy,0,2012-09-01 16:54:00
1:54 PM,84.9,69.1,59,30.14,10.0,Variable,3.5,-,N/A,,Mostly Cloudy,0,2012-09-01 17:54:00
2:54 PM,88.0,66.9,49,30.11,10.0,Calm,Calm,-,N/A,,Scattered Clouds,0,2012-09-01 18:54:00
3:54 PM,90.0,66.9,46,30.08,10.0,Variable,3.5,-,N/A,,Scattered Clouds,0,2012-09-01 19:54:00
4:54 PM,89.1,64.9,45,30.06,10.0,Calm,Calm,-,N/A,,Scattered Clouds,0,2012-09-01 20:54:00
5:54 PM,89.1,66.0,46,30.05,10.0,South,4.6,-,N/A,,Scattered Clouds,180,2012-09-01 21:54:00
6:41 PM,86.0,66.2,51,30.11,10.0,South,9.2,-,N/A,Thunderstorm,Thunderstorm,170,2012-09-01 22:41:00
6:54 PM,84.9,66.9,55,30.08,10.0,SW,23.0,31.1,N/A,Thunderstorm,Thunderstorm,220,2012-09-01 22:54:00
7:10 PM,80.6,62.6,54,30.13,10.0,WSW,10.4,27.6,N/A,Thunderstorm,Thunderstorm,240,2012-09-01 23:10:00
7:54 PM,72.0,66.0,81,30.10,10.0,WNW,9.2,-,0.01,Rain-Thunderstorm,Light Thunderstorms and Rain,300,2012-09-01 23:54:00
8:18 PM,71.6,66.2,83,30.14,10.0,Calm,Calm,-,0.00,Rain,Light Rain,0,2012-09-02 00:18:00
8:54 PM,73.0,66.9,81,30.11,10.0,Calm,Calm,-,0.00,,Scattered Clouds,0,2012-09-02 00:54:00
9:54 PM,73.0,69.1,87,30.12,10.0,SW,3.5,-,0.06,Rain,Light Rain,220,2012-09-02 01:54:00
10:54 PM,72.0,69.1,91,30.10,10.0,Calm,Calm,-,0.01,,Mostly Cloudy,0,2012-09-02 02:54:00
11:54 PM,71.6,69.8,94,30.13,10.0,Calm,Calm,-,N/A,,Scattered Clouds,0,2012-09-02 03:54:00